Time,TemperatureF,DewpointF,PressureIn,WindDirection,WindDirectionDegrees,WindSpeedMPH,WindSpeedGustMPH,Humidity,HourlyPrecipIn,Conditions,Clouds,dailyrainin,SoftwareType,DateUTC
2013-06-25 00:01:00,67.0,-23.0,28.01,NNW,337,0.0,0.0,0,0.00,,,0.00,Rainwise IP-100,2013-06-25 04:01:00,
2013-06-25 00:06:00,67.0,-23.0,28.00,NNW,337,0.0,0.0,0,0.00,,,0.00,Rainwise IP-100,2013-06-25 04:06:00,
2013-06-25 00:11:00,67.0,-23.0,28.00,NNW,337,0.0,0.0,0,0.00,,,0.00,Rainwise IP-100,2013-06-25 04:11:00,
2013-06-25 00:16:00,67.0,-23.0,28.00,NNW,337,0.0,0.0,0,0.00,,,0.00,Rainwise IP-100,2013-06-25 04:16:00,
2013-06-25 00:18:00,67.0,-23.0,28.00,NNW,337,0.0,0.0,0,0.00,,,0.00,Rainwise IP-100,2013-06-25 04:18:00,
2013-06-25 00:23:00,67.0,-23.0,28.00,NNW,337,0.0,0.0,0,0.00,,,0.00,Rainwise IP-100,2013-06-25 04:23:00,
2013-06-25 00:28:00,67.0,-23.0,28.00,NNW,337,0.0,0.0,0,0.00,,,0.00,Rainwise IP-100,2013-06-25 04:28:00,
2013-06-25 00:33:00,66.0,-23.0,28.00,NNW,337,0.0,0.0,0,0.00,,,0.00,Rainwise IP-100,2013-06-25 04:33:00,
2013-06-25 00:38:00,66.0,-23.0,28.00,NNW,337,0.0,0.0,0,0.00,,,0.00,Rainwise IP-100,2013-06-25 04:38:00,
2013-06-25 00:43:00,67.0,-23.0,28.00,NNW,337,0.0,0.0,0,0.00,,,0.00,Rainwise IP-100,2013-06-25 04:43:00,
2013-06-25 00:48:00,66.0,-23.0,28.00,NNW,337,0.0,0.0,0,0.00,,,0.00,Rainwise IP-100,2013-06-25 04:48:00,
2013-06-25 00:53:00,66.0,-23.0,28.00,NNW,337,0.0,0.0,0,0.00,,,0.00,Rainwise IP-100,2013-06-25 04:53:00,
2013-06-25 00:58:00,66.0,-23.0,28.00,NNW,337,0.0,0.0,0,0.00,,,0.00,Rainwise IP-100,2013-06-25 04:58:00,
2013-06-25 01:03:00,66.0,-23.0,28.00,NNW,337,0.0,0.0,0,0.00,,,0.00,Rainwise IP-100,2013-06-25 05:03:00,
2013-06-25 01:08:00,66.0,-23.0,28.00,NNW,337,0.0,0.0,0,0.00,,,0.00,Rainwise IP-100,2013-06-25 05:08:00,
2013-06-25 01:13:00,66.0,-23.0,28.00,NNW,337,0.0,0.0,0,0.00,,,0.00,Rainwise IP-100,2013-06-25 05:13:00,
2013-06-25 01:18:00,65.0,-23.0,28.00,NNW,337,0.0,0.0,0,0.00,,,0.00,Rainwise IP-100,2013-06-25 05:18:00,
2013-06-25 01:23:00,65.0,-23.0,28.00,NNW,337,0.0,0.0,0,0.00,,,0.00,Rainwise IP-100,2013-06-25 05:23:00,
2013-06-25 01:28:00,65.0,-23.0,28.00,NNW,337,0.0,0.0,0,0.00,,,0.00,Rainwise IP-100,2013-06-25 05:28:00,
2013-06-25 01:33:00,65.0,-23.0,28.00,NNW,337,0.0,0.0,0,0.00,,,0.00,Rainwise IP-100,2013-06-25 05:33:00,
2013-06-25 01:38:00,65.0,-23.0,28.00,NNW,337,0.0,0.0,0,0.00,,,0.00,Rainwise IP-100,2013-06-25 05:38:00,
2013-06-25 01:43:00,65.0,-23.0,28.00,NNW,337,0.0,0.0,0,0.00,,,0.00,Rainwise IP-100,2013-06-25 05:43:00,
2013-06-25 01:48:00,65.0,-23.0,28.00,NNW,337,0.0,0.0,0,0.00,,,0.00,Rainwise IP-100,2013-06-25 05:48:00,
2013-06-25 01:53:00,65.0,-23.0,28.00,NNW,337,0.0,0.0,0,0.00,,,0.00,Rainwise IP-100,2013-06-25 05:53:00,
2013-06-25 01:58:00,65.0,-23.0,28.00,NNW,337,0.0,0.0,0,0.00,,,0.00,Rainwise IP-100,2013-06-25 05:58:00,
2013-06-25 02:03:00,65.0,-23.0,28.00,NNW,337,0.0,0.0,0,0.00,,,0.00,Rainwise IP-100,2013-06-25 06:03:00,
2013-06-25 02:08:00,65.0,-23.0,28.00,NNW,337,0.0,0.0,0,0.00,,,0.00,Rainwise IP-100,2013-06-25 06:08:00,
2013-06-25 02:13:00,65.0,-23.0,28.00,NNW,337,0.0,0.0,0,0.00,,,0.00,Rainwise IP-100,2013-06-25 06:13:00,
2013-06-25 02:18:00,64.0,-23.0,28.00,NNW,337,0.0,0.0,0,0.00,,,0.00,Rainwise IP-100,2013-06-25 06:18:00,
2013-06-25 02:23:00,64.0,-23.0,28.00,NNW,337,0.0,0.0,0,0.00,,,0.00,Rainwise IP-100,2013-06-25 06:23:00,
2013-06-25 02:28:00,64.0,-23.0,28.00,NNW,337,0.0,0.0,0,0.00,,,0.00,Rainwise IP-100,2013-06-25 06:28:00,
2013-06-25 02:30:00,64.0,-23.0,28.00,NNW,337,0.0,0.0,0,0.00,,,0.00,Rainwise IP-100,2013-06-25 06:30:00,
2013-06-25 02:35:00,64.0,-23.0,28.00,NNW,337,0.0,0.0,0,0.00,,,0.00,Rainwise IP-100,2013-06-25 06:35:00,
2013-06-25 02:40:00,64.0,-23.0,28.00,NNW,337,0.0,0.0,0,0.00,,,0.00,Rainwise IP-100,2013-06-25 06:40:00,
2013-06-25 02:45:00,64.0,-23.0,28.00,NNW,337,0.0,0.0,0,0.00,,,0.00,Rainwise IP-100,2013-06-25 06:45:00,
2013-06-25 02:50:00,64.0,-23.0,28.00,NNW,337,0.0,0.0,0,0.00,,,0.00,Rainwise IP-100,2013-06-25 06:50:00,
2013-06-25 02:55:00,64.0,-23.0,28.00,NNW,337,0.0,0.0,0,0.00,,,0.00,Rainwise IP-100,2013-06-25 06:55:00,
2013-06-25 03:00:00,64.0,-23.0,28.00,NNW,337,0.0,0.0,0,0.00,,,0.00,Rainwise IP-100,2013-06-25 07:00:00,
2013-06-25 03:05:00,64.0,-23.0,28.00,NNW,337,0.0,0.0,0,0.00,,,0.00,Rainwise IP-100,2013-06-25 07:05:00,
2013-06-25 03:10:00,64.0,-23.0,28.00,NNW,337,0.0,0.0,0,0.00,,,0.00,Rainwise IP-100,2013-06-25 07:10:00,
2013-06-25 03:15:00,64.0,-23.0,28.00,NNW,337,0.0,0.0,0,0.00,,,0.00,Rainwise IP-100,2013-06-25 07:15:00,
2013-06-25 03:20:00,64.0,-23.0,28.00,NNW,337,0.0,0.0,0,0.00,,,0.00,Rainwise IP-100,2013-06-25 07:20:00,
2013-06-25 03:25:00,64.0,-23.0,28.00,NNW,337,0.0,0.0,0,0.00,,,0.00,Rainwise IP-100,2013-06-25 07:25:00,
2013-06-25 03:30:00,64.0,-23.0,28.00,NNW,337,0.0,0.0,0,0.00,,,0.00,Rainwise IP-100,2013-06-25 07:30:00,
2013-06-25 03:35:00,64.0,-23.0,28.00,NNW,337,0.0,0.0,0,0.00,,,0.00,Rainwise IP-100,2013-06-25 07:35:00,
2013-06-25 03:40:00,64.0,-23.0,28.00,NNW,337,0.0,0.0,0,0.00,,,0.00,Rainwise IP-100,2013-06-25 07:40:00,
2013-06-25 03:45:00,64.0,-23.0,28.00,NNW,337,0.0,0.0,0,0.00,,,0.00,Rainwise IP-100,2013-06-25 07:45:00,
2013-06-25 08:13:00,65.0,-23.0,28.00,ESE,112,0.0,0.0,0,0.00,,,0.00,Rainwise IP-100,2013-06-25 12:13:00,
2013-06-25 08:18:00,66.0,-23.0,28.00,ESE,112,0.0,0.0,0,0.00,,,0.00,Rainwise IP-100,2013-06-25 12:18:00,
2013-06-25 08:23:00,66.0,-23.0,28.00,ESE,112,0.0,0.0,0,0.00,,,0.00,Rainwise IP-100,2013-06-25 12:23:00,
2013-06-25 08:28:00,66.0,-23.0,28.00,ESE,112,0.0,0.0,0,0.00,,,0.00,Rainwise IP-100,2013-06-25 12:28:00,
2013-06-25 08:33:00,66.0,-23.0,28.01,ESE,112,0.0,0.0,0,0.00,,,0.00,Rainwise IP-100,2013-06-25 12:33:00,
2013-06-25 08:38:00,66.0,-23.0,28.01,ESE,112,0.0,0.0,0,0.00,,,0.00,Rainwise IP-100,2013-06-25 12:38:00,
2013-06-25 08:43:00,66.0,-23.0,28.00,ESE,112,0.0,0.0,0,0.00,,,0.00,Rainwise IP-100,2013-06-25 12:43:00,
2013-06-25 08:48:00,66.0,-23.0,28.00,ESE,112,0.0,0.0,0,0.00,,,0.00,Rainwise IP-100,2013-06-25 12:48:00,
2013-06-25 08:53:00,67.0,-23.0,28.00,SW,225,0.0,0.0,0,0.00,,,0.00,Rainwise IP-100,2013-06-25 12:53:00,
2013-06-25 08:58:00,67.0,-23.0,28.00,South,180,1.0,3.0,0,0.00,,,0.00,Rainwise IP-100,2013-06-25 12:58:00,
2013-06-25 09:03:00,67.0,-23.0,28.00,South,180,1.0,2.0,0,0.00,,,0.00,Rainwise IP-100,2013-06-25 13:03:00,
2013-06-25 09:08:00,67.0,-23.0,28.00,South,180,1.0,2.0,0,0.00,,,0.00,Rainwise IP-100,2013-06-25 13:08:00,
2013-06-25 09:13:00,67.0,-23.0,28.00,South,180,1.0,2.0,0,0.00,,,0.00,Rainwise IP-100,2013-06-25 13:13:00,
2013-06-25 09:18:00,67.0,-23.0,28.00,South,180,1.0,2.0,0,0.00,,,0.00,Rainwise IP-100,2013-06-25 13:18:00,
2013-06-25 09:23:00,67.0,-23.0,28.00,South,180,1.0,2.0,0,0.00,,,0.00,Rainwise IP-100,2013-06-25 13:23:00,
2013-06-25 09:28:00,67.0,-23.0,28.00,South,180,1.0,2.0,0,0.00,,,0.00,Rainwise IP-100,2013-06-25 13:28:00,
2013-06-25 09:33:00,67.0,-23.0,28.00,South,180,1.0,2.0,0,0.00,,,0.00,Rainwise IP-100,2013-06-25 13:33:00,
2013-06-25 09:38:00,67.0,-23.0,28.00,South,180,1.0,2.0,0,0.00,,,0.00,Rainwise IP-100,2013-06-25 13:38:00,
2013-06-25 09:43:00,71.0,-23.0,28.01,SE,135,0.0,2.0,0,0.00,,,0.00,Rainwise IP-100,2013-06-25 13:43:00,
2013-06-25 09:48:00,72.0,-23.0,28.01,ESE,112,0.0,0.0,0,0.00,,,0.00,Rainwise IP-100,2013-06-25 13:48:00,
2013-06-25 09:53:00,73.0,-23.0,28.01,SSE,157,0.0,0.0,0,0.00,,,0.00,Rainwise IP-100,2013-06-25 13:53:00,
2013-06-25 09:58:00,75.0,-23.0,27.99,SE,135,1.0,3.0,0,0.00,,,0.00,Rainwise IP-100,2013-06-25 13:58:00,
2013-06-25 10:03:00,75.0,-23.0,27.99,SE,135,1.0,3.0,0,0.00,,,0.00,Rainwise IP-100,2013-06-25 14:03:00,
2013-06-25 10:08:00,75.0,-23.0,27.99,SE,135,1.0,3.0,0,0.00,,,0.00,Rainwise IP-100,2013-06-25 14:08:00,
2013-06-25 10:13:00,78.0,49.0,27.98,ESE,112,0.0,3.0,36,0.00,,,0.00,Rainwise IP-100,2013-06-25 14:13:00,
2013-06-25 10:18:00,78.0,49.0,27.98,SSE,157,0.0,3.0,36,0.00,,,0.00,Rainwise IP-100,2013-06-25 14:18:00,
2013-06-25 10:23:00,78.0,63.0,27.98,SSE,157,0.0,3.0,60,0.00,,,0.00,Rainwise IP-100,2013-06-25 14:23:00,
2013-06-25 10:28:00,78.0,63.0,27.98,SSE,157,0.0,0.0,60,0.00,,,0.00,Rainwise IP-100,2013-06-25 14:28:00,
2013-06-25 10:33:00,80.0,71.0,27.97,SSE,157,0.0,0.0,74,0.00,,,0.00,Rainwise IP-100,2013-06-25 14:33:00,
2013-06-25 10:38:00,82.0,77.0,27.97,SSE,157,0.0,0.0,85,0.00,,,0.00,Rainwise IP-100,2013-06-25 14:38:00,
2013-06-25 10:43:00,82.0,78.7,27.97,West,270,0.0,0.0,90,0.00,,,0.00,Rainwise IP-100,2013-06-25 14:43:00,
2013-06-25 10:48:00,81.0,78.0,27.97,SSW,202,0.0,0.0,91,0.00,,,0.00,Rainwise IP-100,2013-06-25 14:48:00,
2013-06-25 10:53:00,81.0,78.3,27.97,SE,135,0.0,0.0,92,0.00,,,0.00,Rainwise IP-100,2013-06-25 14:53:00,
2013-06-25 10:58:00,81.0,77.7,27.97,SSE,157,0.0,0.0,90,0.00,,,0.00,Rainwise IP-100,2013-06-25 14:58:00,
2013-06-25 11:03:00,81.0,78.3,27.97,SSE,157,0.0,0.0,92,0.00,,,0.00,Rainwise IP-100,2013-06-25 15:03:00,
2013-06-25 11:08:00,82.0,79.0,27.97,SSE,157,0.0,0.0,91,0.00,,,0.00,Rainwise IP-100,2013-06-25 15:08:00,
2013-06-25 11:13:00,82.0,79.3,27.97,ESE,112,0.0,0.0,92,0.00,,,0.00,Rainwise IP-100,2013-06-25 15:13:00,
2013-06-25 11:18:00,82.0,79.3,27.96,South,180,0.0,0.0,92,0.00,,,0.00,Rainwise IP-100,2013-06-25 15:18:00,
2013-06-25 11:23:00,83.0,80.5,27.96,NW,315,0.0,0.0,92,0.00,,,0.00,Rainwise IP-100,2013-06-25 15:23:00,
2013-06-25 11:28:00,82.0,78.7,27.96,NW,315,0.0,0.0,90,0.00,,,0.00,Rainwise IP-100,2013-06-25 15:28:00,
2013-06-25 11:33:00,82.0,78.3,27.97,NW,315,0.0,0.0,89,0.00,,,0.00,Rainwise IP-100,2013-06-25 15:33:00,
2013-06-25 11:38:00,82.0,78.3,27.97,WNW,292,0.0,0.0,89,0.00,,,0.00,Rainwise IP-100,2013-06-25 15:38:00,
2013-06-25 11:43:00,83.0,80.0,27.97,WNW,292,0.0,0.0,90,0.00,,,0.00,Rainwise IP-100,2013-06-25 15:43:00,
2013-06-25 11:48:00,83.0,79.0,27.97,West,270,0.0,0.0,88,0.00,,,0.00,Rainwise IP-100,2013-06-25 15:48:00,
2013-06-25 11:53:00,83.0,78.7,27.97,SSW,202,0.0,0.0,87,0.00,,,0.00,Rainwise IP-100,2013-06-25 15:53:00,
2013-06-25 11:58:00,81.0,78.3,27.97,West,270,0.0,0.0,92,0.00,,,0.00,Rainwise IP-100,2013-06-25 15:58:00,
2013-06-25 12:03:00,82.0,79.3,27.96,SSE,157,0.0,0.0,92,0.00,,,0.00,Rainwise IP-100,2013-06-25 16:03:00,
2013-06-25 12:08:00,83.0,80.5,27.96,SSE,157,0.0,0.0,92,0.00,,,0.00,Rainwise IP-100,2013-06-25 16:08:00,
2013-06-25 12:13:00,84.0,80.3,27.96,South,180,0.0,0.0,88,0.00,,,0.00,Rainwise IP-100,2013-06-25 16:13:00,
2013-06-25 12:18:00,84.0,80.5,27.96,SE,135,0.0,0.0,89,0.00,,,0.00,Rainwise IP-100,2013-06-25 16:18:00,
2013-06-25 12:23:00,84.0,80.3,27.95,SE,135,0.0,0.0,88,0.00,,,0.00,Rainwise IP-100,2013-06-25 16:23:00,
2013-06-25 12:28:00,84.0,78.7,27.95,South,180,0.0,0.0,84,0.00,,,0.00,Rainwise IP-100,2013-06-25 16:28:00,
2013-06-25 12:33:00,83.0,80.0,27.96,South,180,0.0,0.0,90,0.00,,,0.00,Rainwise IP-100,2013-06-25 16:33:00,
2013-06-25 12:38:00,83.0,80.0,27.96,South,180,0.0,0.0,90,0.00,,,0.00,Rainwise IP-100,2013-06-25 16:38:00,
2013-06-25 12:43:00,83.0,80.0,27.96,South,180,0.0,0.0,90,0.00,,,0.00,Rainwise IP-100,2013-06-25 16:43:00,
2013-06-25 12:48:00,87.0,79.7,27.94,NW,315,0.0,0.0,79,0.00,,,0.00,Rainwise IP-100,2013-06-25 16:48:00,
2013-06-25 12:53:00,87.0,80.8,27.94,WSW,247,0.0,0.0,82,0.00,,,0.00,Rainwise IP-100,2013-06-25 16:53:00,
2013-06-25 12:58:00,85.0,79.0,27.94,WNW,292,0.0,0.0,83,0.00,,,0.00,Rainwise IP-100,2013-06-25 16:58:00,
2013-06-25 13:03:00,83.0,78.0,27.94,West,270,0.0,0.0,85,0.00,,,0.00,Rainwise IP-100,2013-06-25 17:03:00,
2013-06-25 13:08:00,82.0,78.0,27.94,West,270,0.0,0.0,88,0.00,,,0.00,Rainwise IP-100,2013-06-25 17:08:00,
2013-06-25 13:13:00,81.0,77.7,27.94,West,270,0.0,0.0,90,0.00,,,0.00,Rainwise IP-100,2013-06-25 17:13:00,
2013-06-25 13:18:00,82.0,78.0,27.95,West,270,0.0,0.0,88,0.00,,,0.00,Rainwise IP-100,2013-06-25 17:18:00,
2013-06-25 13:23:00,82.0,77.7,27.95,West,270,0.0,0.0,87,0.00,,,0.00,Rainwise IP-100,2013-06-25 17:23:00,
2013-06-25 13:28:00,82.0,77.7,27.95,West,270,0.0,0.0,87,0.00,,,0.00,Rainwise IP-100,2013-06-25 17:28:00,
2013-06-25 13:33:00,82.0,77.7,27.95,West,270,0.0,0.0,87,0.00,,,0.00,Rainwise IP-100,2013-06-25 17:33:00,
2013-06-25 13:38:00,82.0,77.7,27.95,West,270,0.0,0.0,87,0.00,,,0.00,Rainwise IP-100,2013-06-25 17:38:00,
2013-06-25 13:43:00,82.0,79.3,27.93,SSW,202,0.0,3.0,92,0.00,,,0.00,Rainwise IP-100,2013-06-25 17:43:00,
2013-06-25 13:48:00,82.0,79.3,27.93,SSW,202,0.0,3.0,92,0.00,,,0.00,Rainwise IP-100,2013-06-25 17:48:00,
2013-06-25 13:53:00,81.0,79.7,27.93,SSE,157,0.0,3.0,95,0.00,,,0.00,Rainwise IP-100,2013-06-25 17:53:00,
2013-06-25 13:58:00,81.0,79.7,27.93,SSE,157,0.0,2.0,95,0.00,,,0.00,Rainwise IP-100,2013-06-25 17:58:00,
2013-06-25 14:03:00,81.0,79.7,27.93,SSE,157,0.0,2.0,95,0.00,,,0.00,Rainwise IP-100,2013-06-25 18:03:00,
2013-06-25 14:08:00,81.0,79.7,27.93,SSE,157,0.0,0.0,95,0.00,,,0.00,Rainwise IP-100,2013-06-25 18:08:00,
2013-06-25 14:13:00,80.0,78.3,27.92,South,180,0.0,0.0,95,0.00,,,0.00,Rainwise IP-100,2013-06-25 18:13:00,
2013-06-25 14:18:00,81.0,79.7,27.92,ESE,112,0.0,0.0,95,0.00,,,0.00,Rainwise IP-100,2013-06-25 18:18:00,
2013-06-25 14:23:00,81.0,79.3,27.92,SE,135,1.0,4.0,94,0.00,,,0.00,Rainwise IP-100,2013-06-25 18:23:00,
2013-06-25 14:28:00,82.0,79.7,27.91,SSE,157,4.0,4.0,93,0.00,,,0.00,Rainwise IP-100,2013-06-25 18:28:00,
2013-06-25 14:33:00,81.0,79.3,27.92,SSE,157,2.0,4.0,94,0.00,,,0.00,Rainwise IP-100,2013-06-25 18:33:00,
2013-06-25 14:38:00,81.0,79.3,27.92,SSW,202,2.0,4.0,94,0.00,,,0.00,Rainwise IP-100,2013-06-25 18:38:00,
2013-06-25 14:43:00,81.0,79.3,27.92,SSW,202,2.0,4.0,94,0.00,,,0.00,Rainwise IP-100,2013-06-25 18:43:00,
2013-06-25 14:48:00,79.0,78.0,27.92,ESE,112,3.0,4.0,97,0.00,,,0.00,Rainwise IP-100,2013-06-25 18:48:00,
2013-06-25 14:53:00,79.0,78.0,27.92,ESE,112,0.0,4.0,97,0.00,,,0.00,Rainwise IP-100,2013-06-25 18:53:00,
2013-06-25 14:58:00,79.0,78.0,27.92,ESE,112,0.0,0.0,97,0.00,,,0.00,Rainwise IP-100,2013-06-25 18:58:00,
2013-06-25 15:03:00,79.0,78.0,27.92,ESE,112,0.0,0.0,97,0.00,,,0.00,Rainwise IP-100,2013-06-25 19:03:00,
2013-06-25 15:08:00,79.0,78.0,27.92,ESE,112,0.0,0.0,97,0.00,,,0.00,Rainwise IP-100,2013-06-25 19:08:00,
2013-06-25 15:13:00,79.0,78.0,27.92,ESE,112,0.0,0.0,97,0.00,,,0.00,Rainwise IP-100,2013-06-25 19:13:00,
2013-06-25 15:18:00,80.0,78.3,27.91,NNE,22,0.0,1.0,95,0.00,,,0.00,Rainwise IP-100,2013-06-25 19:18:00,
2013-06-25 15:23:00,81.0,79.7,27.90,SSE,157,0.0,5.0,95,0.00,,,0.00,Rainwise IP-100,2013-06-25 19:23:00,
2013-06-25 15:28:00,81.0,79.7,27.90,ESE,112,0.0,3.0,95,0.00,,,0.00,Rainwise IP-100,2013-06-25 19:28:00,
2013-06-25 15:33:00,82.0,79.3,27.90,SW,225,1.0,2.0,92,0.00,,,0.00,Rainwise IP-100,2013-06-25 19:33:00,
2013-06-25 15:38:00,82.0,79.3,27.90,SW,225,1.0,2.0,92,0.00,,,0.00,Rainwise IP-100,2013-06-25 19:38:00,
2013-06-25 15:43:00,82.0,79.3,27.90,SW,225,1.0,2.0,92,0.00,,,0.00,Rainwise IP-100,2013-06-25 19:43:00,
2013-06-25 15:48:00,82.0,79.3,27.90,SW,225,1.0,2.0,92,0.00,,,0.00,Rainwise IP-100,2013-06-25 19:48:00,
2013-06-25 15:53:00,82.0,79.3,27.90,SW,225,1.0,2.0,92,0.00,,,0.00,Rainwise IP-100,2013-06-25 19:53:00,
2013-06-25 15:58:00,82.0,79.3,27.90,SW,225,1.0,2.0,92,0.00,,,0.00,Rainwise IP-100,2013-06-25 19:58:00,
2013-06-25 16:03:00,82.0,79.3,27.90,SW,225,1.0,2.0,92,0.00,,,0.00,Rainwise IP-100,2013-06-25 20:03:00,
2013-06-25 16:08:00,82.0,79.3,27.90,SW,225,1.0,2.0,92,0.00,,,0.00,Rainwise IP-100,2013-06-25 20:08:00,
2013-06-25 16:13:00,82.0,79.3,27.90,SW,225,1.0,2.0,92,0.00,,,0.00,Rainwise IP-100,2013-06-25 20:13:00,
2013-06-25 16:18:00,78.0,76.5,27.90,NNW,337,0.0,3.0,95,0.00,,,0.00,Rainwise IP-100,2013-06-25 20:18:00,
2013-06-25 16:23:00,78.0,77.0,27.91,ESE,112,0.0,3.0,97,0.00,,,0.00,Rainwise IP-100,2013-06-25 20:23:00,
2013-06-25 16:28:00,77.0,76.3,27.91,WNW,292,2.0,2.0,97,0.00,,,0.00,Rainwise IP-100,2013-06-25 20:28:00,
2013-06-25 18:01:00,70.0,-23.0,27.92,SE,135,0.0,2.0,0,0.00,,,0.03,Rainwise IP-100,2013-06-25 22:01:00,
2013-06-25 18:06:00,70.0,-23.0,27.91,SE,135,0.0,2.0,0,0.18,,,0.03,Rainwise IP-100,2013-06-25 22:06:00,
2013-06-25 18:11:00,70.0,-23.0,27.91,SE,135,0.0,0.0,0,0.18,,,0.03,Rainwise IP-100,2013-06-25 22:11:00,
2013-06-25 18:16:00,70.0,-23.0,27.90,SE,135,0.0,0.0,0,0.00,,,0.03,Rainwise IP-100,2013-06-25 22:16:00,
2013-06-25 18:21:00,70.0,-23.0,27.90,SE,135,0.0,0.0,0,0.00,,,0.03,Rainwise IP-100,2013-06-25 22:21:00,
2013-06-25 18:26:00,71.0,-23.0,27.89,SE,135,0.0,0.0,0,0.00,,,0.03,Rainwise IP-100,2013-06-25 22:26:00,
2013-06-25 18:31:00,71.0,-23.0,27.89,SE,135,0.0,0.0,0,0.00,,,0.03,Rainwise IP-100,2013-06-25 22:31:00,
2013-06-25 18:36:00,71.0,-23.0,27.89,SE,135,0.0,0.0,0,0.00,,,0.03,Rainwise IP-100,2013-06-25 22:36:00,
2013-06-25 18:41:00,71.0,-23.0,27.89,SE,135,0.0,0.0,0,0.00,,,0.03,Rainwise IP-100,2013-06-25 22:41:00,
2013-06-25 18:46:00,71.0,-23.0,27.89,SE,135,0.0,0.0,0,0.00,,,0.03,Rainwise IP-100,2013-06-25 22:46:00,
2013-06-25 18:51:00,71.0,-23.0,27.89,SE,135,0.0,0.0,0,0.00,,,0.03,Rainwise IP-100,2013-06-25 22:51:00,
2013-06-25 18:56:00,71.0,-23.0,27.88,SE,135,0.0,0.0,0,0.00,,,0.03,Rainwise IP-100,2013-06-25 22:56:00,
2013-06-25 19:01:00,71.0,-23.0,27.88,SE,135,0.0,0.0,0,0.00,,,0.03,Rainwise IP-100,2013-06-25 23:01:00,
2013-06-25 19:06:00,71.0,-23.0,27.89,West,270,0.0,2.0,0,0.00,,,0.03,Rainwise IP-100,2013-06-25 23:06:00,
2013-06-25 19:11:00,70.0,-23.0,27.89,West,270,0.0,2.0,0,0.00,,,0.03,Rainwise IP-100,2013-06-25 23:11:00,
2013-06-25 19:16:00,70.0,-23.0,27.90,West,270,0.0,0.0,0,0.00,,,0.03,Rainwise IP-100,2013-06-25 23:16:00,
2013-06-25 19:21:00,70.0,-23.0,27.90,SSE,157,0.0,0.0,0,0.00,,,0.03,Rainwise IP-100,2013-06-25 23:21:00,
2013-06-25 19:26:00,70.0,-23.0,27.91,SSE,157,0.0,0.0,0,0.00,,,0.03,Rainwise IP-100,2013-06-25 23:26:00,
2013-06-25 19:31:00,70.0,-23.0,27.91,SSW,202,0.0,1.0,0,0.00,,,0.03,Rainwise IP-100,2013-06-25 23:31:00,
2013-06-25 19:36:00,70.0,-23.0,27.91,SSW,202,0.0,0.0,0,0.00,,,0.03,Rainwise IP-100,2013-06-25 23:36:00,
2013-06-25 19:41:00,70.0,-23.0,27.91,SSW,202,0.0,0.0,0,0.00,,,0.03,Rainwise IP-100,2013-06-25 23:41:00,
2013-06-25 19:46:00,70.0,-23.0,27.92,SSW,202,0.0,0.0,0,0.00,,,0.03,Rainwise IP-100,2013-06-25 23:46:00,
2013-06-25 19:51:00,70.0,-23.0,27.92,East,90,0.0,0.0,0,0.00,,,0.03,Rainwise IP-100,2013-06-25 23:51:00,
2013-06-25 19:56:00,70.0,-23.0,27.91,East,90,0.0,1.0,0,0.00,,,0.03,Rainwise IP-100,2013-06-25 23:56:00,
2013-06-25 20:01:00,70.0,-23.0,27.91,East,90,0.0,0.0,0,0.00,,,0.03,Rainwise IP-100,2013-06-26 00:01:00,
2013-06-25 20:06:00,70.0,-23.0,27.91,East,90,0.0,0.0,0,0.00,,,0.03,Rainwise IP-100,2013-06-26 00:06:00,
2013-06-25 20:11:00,70.0,-23.0,27.91,East,90,0.0,0.0,0,0.00,,,0.03,Rainwise IP-100,2013-06-26 00:11:00,
2013-06-25 20:16:00,69.0,-23.0,27.92,East,90,0.0,0.0,0,0.00,,,0.03,Rainwise IP-100,2013-06-26 00:16:00,
2013-06-25 20:21:00,69.0,-23.0,27.92,East,90,0.0,0.0,0,0.00,,,0.03,Rainwise IP-100,2013-06-26 00:21:00,
2013-06-25 20:26:00,69.0,-23.0,27.92,East,90,0.0,0.0,0,0.00,,,0.03,Rainwise IP-100,2013-06-26 00:26:00,
2013-06-25 20:31:00,69.0,-23.0,27.92,East,90,0.0,0.0,0,0.00,,,0.03,Rainwise IP-100,2013-06-26 00:31:00,
2013-06-25 20:36:00,68.0,-23.0,27.92,East,90,0.0,0.0,0,0.00,,,0.03,Rainwise IP-100,2013-06-26 00:36:00,
2013-06-25 20:41:00,68.0,-23.0,27.92,East,90,0.0,0.0,0,0.00,,,0.03,Rainwise IP-100,2013-06-26 00:41:00,
2013-06-25 20:46:00,68.0,-23.0,27.92,East,90,0.0,0.0,0,0.00,,,0.03,Rainwise IP-100,2013-06-26 00:46:00,
2013-06-25 20:51:00,68.0,-23.0,27.92,East,90,0.0,0.0,0,0.00,,,0.03,Rainwise IP-100,2013-06-26 00:51:00,
2013-06-25 20:56:00,68.0,-23.0,27.91,East,90,0.0,0.0,0,0.00,,,0.03,Rainwise IP-100,2013-06-26 00:56:00,
2013-06-25 21:01:00,67.0,-23.0,27.91,East,90,0.0,0.0,0,0.00,,,0.03,Rainwise IP-100,2013-06-26 01:01:00,
2013-06-25 21:06:00,67.0,-23.0,27.92,East,90,0.0,0.0,0,0.00,,,0.03,Rainwise IP-100,2013-06-26 01:06:00,
2013-06-25 21:11:00,67.0,-23.0,27.92,East,90,0.0,0.0,0,0.00,,,0.03,Rainwise IP-100,2013-06-26 01:11:00,
2013-06-25 21:16:00,67.0,-23.0,27.91,East,90,0.0,0.0,0,0.00,,,0.03,Rainwise IP-100,2013-06-26 01:16:00,
2013-06-25 21:21:00,67.0,-23.0,27.91,East,90,0.0,0.0,0,0.00,,,0.03,Rainwise IP-100,2013-06-26 01:21:00,
2013-06-25 21:26:00,66.0,-23.0,27.91,East,90,0.0,0.0,0,0.00,,,0.03,Rainwise IP-100,2013-06-26 01:26:00,
2013-06-25 21:31:00,66.0,-23.0,27.91,East,90,0.0,0.0,0,0.00,,,0.03,Rainwise IP-100,2013-06-26 01:31:00,
2013-06-25 21:36:00,66.0,-23.0,27.92,East,90,0.0,0.0,0,0.00,,,0.03,Rainwise IP-100,2013-06-26 01:36:00,
2013-06-25 21:42:00,66.0,-23.0,27.92,East,90,0.0,0.0,0,0.00,,,0.03,Rainwise IP-100,2013-06-26 01:42:00,
2013-06-25 21:47:00,66.0,-23.0,27.92,East,90,0.0,0.0,0,0.00,,,0.03,Rainwise IP-100,2013-06-26 01:47:00,
2013-06-25 21:52:00,66.0,-23.0,27.92,East,90,0.0,0.0,0,0.00,,,0.03,Rainwise IP-100,2013-06-26 01:52:00,
2013-06-25 21:57:00,65.0,-23.0,27.92,East,90,0.0,0.0,0,0.00,,,0.03,Rainwise IP-100,2013-06-26 01:57:00,
2013-06-25 22:02:00,65.0,-23.0,27.92,East,90,0.0,0.0,0,0.00,,,0.03,Rainwise IP-100,2013-06-26 02:02:00,
2013-06-25 22:07:00,65.0,-23.0,27.93,East,90,0.0,0.0,0,0.00,,,0.03,Rainwise IP-100,2013-06-26 02:07:00,
2013-06-25 22:12:00,65.0,-23.0,27.93,East,90,0.0,0.0,0,0.00,,,0.03,Rainwise IP-100,2013-06-26 02:12:00,
2013-06-25 22:17:00,65.0,-23.0,27.93,East,90,0.0,0.0,0,0.00,,,0.03,Rainwise IP-100,2013-06-26 02:17:00,
2013-06-25 22:22:00,65.0,-23.0,27.93,East,90,0.0,0.0,0,0.00,,,0.03,Rainwise IP-100,2013-06-26 02:22:00,
2013-06-25 22:27:00,65.0,-23.0,27.93,East,90,0.0,0.0,0,0.00,,,0.03,Rainwise IP-100,2013-06-26 02:27:00,
2013-06-25 22:32:00,65.0,-23.0,27.93,East,90,0.0,0.0,0,0.00,,,0.03,Rainwise IP-100,2013-06-26 02:32:00,
2013-06-25 22:37:00,65.0,-23.0,27.93,East,90,0.0,0.0,0,0.00,,,0.03,Rainwise IP-100,2013-06-26 02:37:00,
2013-06-25 22:42:00,64.0,-23.0,27.93,East,90,0.0,0.0,0,0.00,,,0.03,Rainwise IP-100,2013-06-26 02:42:00,
2013-06-25 22:47:00,64.0,-23.0,27.93,East,90,0.0,0.0,0,0.00,,,0.03,Rainwise IP-100,2013-06-26 02:47:00,